Regional Weather Roundup
Issued by NWS

Home | Current Version | Previous Version | Graphics & Text | Print | Product List | Glossary On
Versions: 1 2 3 4 5 6 7 8 9 10 11 12 13 14 15 16 17 18 19 20 21 22 23 24 25 26 27 28 29 30 31 32 33 34 35 36 37 38 39 40 41 42 43 44 45 46 47 48 49 50
770
ASUS43 KIND 151359
RWRIN

WEATHER ROUNDUP FOR INDIANA
NATIONAL WEATHER SERVICE INDIANAPOLIS IN
900 AM EST FRI DEC 15 2017

NOTE: "FAIR" INDICATES FEW OR NO CLOUDS BELOW 12,000 FEET WITH NO
SIGNIFICANT WEATHER AND/OR OBSTRUCTIONS TO VISIBILITY.

* - STATION DOES NOT REPORT WEATHER SUCH AS PRECIPITATION OR FOG.

+ - STATION NOT QUALITY CONTROLLED BY THE NATIONAL WEATHER SERVICE.
    USE DATA WITH CAUTION...ESPECIALLY DEWPOINT AND RELATIVE
    HUMIDITY OBSERVATIONS.

INZ001>003-010>013-019-020-151500-
NORTHWEST INDIANA

CITY           SKY/WX    TMP DP  RH WIND       PRES   REMARKS
GARY /AIRPORT/ CLOUDY    28  19  69 W12G23    29.94S WCI  18
KNOX *+        CLOUDY    25  19  80 SW12      29.93S WCI  14
LA PORTE +     FLURRIES  23  18  79 SW12      29.92S WCI  12
MICHIGAN CITY+ LGT SNOW  27  19  74 W12G20    29.92S WCI  16
MONTICELLO +   FLURRIES  24  17  75 SW12      29.96F WCI  13
RENSSELAER +   CLOUDY    27  19  74 SW12      29.96S WCI  16

$$

LMZ046-743>745-151500-
SOUTHERN LAKE MICHIGAN

STATION/POSITION TIME  TEMP    WIND        PRES    WAVE
                       AIR SEA DIR/SP/G            HT
                 (UTC) (F)     (DEG/KT/KT) (MB)    (FT)
BURNS HARBOR     1340   27     280/ 19/ 26 1013.9S
MICHIGAN CITY    1330   26     240/ 29/ 32   N/A

$$

INZ004-005-014>016-021>024-151500-
NORTH CENTRAL INDIANA

CITY           SKY/WX    TMP DP  RH WIND       PRES   REMARKS
ELKHART        FLURRIES  23  16  74 SW9       29.90F WCI  13
GOSHEN         CLOUDY    23  14  68 SW15      29.90F WCI  10
PERU/GRISSOM   CLOUDY    25  18  75 W15       29.94F WCI  12
SOUTH BEND     LGT SNOW  22  17  81 SW15      29.90F WCI   9
WARSAW +       CLOUDY    23  16  74 SW9       29.91F WCI  13

$$

INZ006>009-017-018-025>027-151500-
NORTHEAST INDIANA

CITY           SKY/WX    TMP DP  RH WIND       PRES   REMARKS
AUBURN +       CLOUDY    25  18  74 SW7       29.91F WCI  17
FORT WAYNE     CLOUDY    25  18  74 SW14      29.93F WCI  13
KENDALLVILLE + CLOUDY    22  15  74 SW12      29.89F WCI  11

$$

INZ028-029-035-036-043>045-051>053-151500-
WEST CENTRAL INDIANA

CITY           SKY/WX    TMP DP  RH WIND       PRES   REMARKS
CRAWFORDSVL +  CLOUDY    24  18  80 MISG        N/A
GREENCASTLE +  CLOUDY    27  18  69 W8        30.02R WCI  18
LAFAYETTE      CLOUDY    24  19  81 SW7       29.99F WCI  16
TERRE HAUTE    CLOUDY    27  18  69 W9        30.05S WCI  18

$$

INZ030>032-037>040-046>048-054>057-064-065-151500-
CENTRAL INDIANA

CITY           SKY/WX    TMP DP  RH WIND       PRES   REMARKS
ANDERSON       CLOUDY    25  18  74 SW8       29.99  WCI  16
COLUMBUS       CLOUDY    27  18  69 SW5       30.04S WCI  21
FRANKFORT +    CLOUDY    28  20  74 W17       30.00R WCI  15
GREENWOOD *+   MOCLDY    29  20  68 SW6       30.01F WCI  23
INDIANAPOLIS   MOCLDY    27  17  66 SW10      30.00F WCI  17
-EAGLE CREEK   CLOUDY    27  16  63 SW8       29.98F WCI  19
KOKOMO +       CLOUDY    25  19  78 SW15      29.97S WCI  13
MT COMFORT *+  MOCLDY    25  19  80 W10       29.99  WCI  15
SHELBYVILLE    CLOUDY    26  17  68 SW7       30.01F WCI  18

$$

INZ033-034-041-042-049-050-058-059-151500-
EAST CENTRAL INDIANA

CITY           SKY/WX    TMP DP  RH WIND       PRES   REMARKS
MUNCIE         CLOUDY    26  16  65 SW8       29.97S WCI  18
RICHMOND +     CLOUDY    21  19  93 SW9       29.99S WCI  11

$$

INZ060-061-067>069-081>083-085>088-151500-
SOUTHWEST INDIANA

CITY           SKY/WX    TMP DP  RH WIND       PRES   REMARKS
EVANSVILLE     CLOUDY    30  21  69 W10       30.13R WCI  21
HUNTINGBURG +  CLOUDY    29  21  72 W9        30.11R WCI  20

$$

INZ062-063-066-070>080-084-089>092-151500-
SOUTH CENTRAL AND SOUTHEAST INDIANA

CITY           SKY/WX    TMP DP  RH WIND       PRES   REMARKS
BLOOMINGTON    MOCLDY    27  16  63 W8        30.03F WCI  19
MADISON *+     CLOUDY    27  21  80 SW6       30.07R WCI  20
SEYMOUR +      CLOUDY    28  21  74 W7        30.06R WCI  21

$$





USA.gov is the U.S. government's official web portal to all federal, state and local government web resources and services.